| time (UTC) | temp C | wind direction | speed KPH | gust KPH | rain 1hr cm | rain 24hr cm | rain mn cm | humidity % | barometer mb |
| 20260503001500 | 10 | 314 | 1.6 | 8.0 | 0.00 | 0.03 | 0.03 | 48 | 1010.7 |
| 20260502235959 | 11 | 302 | 3.2 | 6.4 | 0.00 | 0.03 | 0.03 | 47 | 1010.6 |
| 20260502234459 | 11 | 290 | 3.2 | 8.0 | 0.00 | 0.03 | 0.03 | 45 | 1010.5 |
| 20260502233000 | 11 | 300 | 4.8 | 11.3 | 0.00 | 0.03 | 0.03 | 44 | 1010.5 |
| 20260502230001 | 12 | 314 | 4.8 | 8.0 | 0.00 | 0.03 | 0.03 | 42 | 1010.4 |
| 20260502224500 | 12 | 276 | 4.8 | 16.1 | 0.00 | 0.03 | 0.03 | 42 | 1010.4 |
| 20260502223001 | 12 | 186 | 4.8 | 11.3 | 0.00 | 0.03 | 0.03 | 44 | 1010.2 |
| 20260502215959 | 12 | 240 | 4.8 | 9.7 | 0.00 | 0.03 | 0.03 | 40 | 1010.2 |
| 20260502214459 | 13 | 286 | 3.2 | 12.9 | 0.00 | 0.03 | 0.03 | 42 | 1010.2 |
| 20260502213000 | 12 | 1 | 6.4 | 12.9 | 0.00 | 0.03 | 0.03 | 41 | 1010.1 |
| 20260502211459 | 13 | 257 | 8.0 | 16.1 | 0.00 | 0.03 | 0.03 | 40 | 1009.7 |
| 20260502210001 | 13 | 282 | 6.4 | 19.3 | 0.00 | 0.03 | 0.03 | 40 | 1009.6 |
| 20260502204459 | 13 | 238 | 6.4 | 19.3 | 0.00 | 0.03 | 0.03 | 42 | 1009.6 |
| 20260502201459 | 13 | 304 | 8.0 | 19.3 | 0.00 | 0.03 | 0.03 | 45 | 1009.8 |
| 20260502195958 | 12 | 319 | 4.8 | 14.5 | 0.00 | 0.03 | 0.03 | 44 | 1010.1 |
| 20260502194459 | 12 | 119 | 6.4 | 11.3 | 0.00 | 0.03 | 0.03 | 44 | 1010.3 |
| 20260502192958 | 12 | 268 | 6.4 | 12.9 | 0.00 | 0.03 | 0.03 | 43 | 1010.6 |
| 20260502191458 | 13 | 326 | 6.4 | 16.1 | 0.00 | 0.03 | 0.03 | 42 | 1010.8 |
| 20260502185959 | 13 | 286 | 4.8 | 16.1 | 0.00 | 0.03 | 0.03 | 45 | 1011.1 |
| 20260502184459 | 12 | 91 | 3.2 | 9.7 | 0.00 | 0.03 | 0.03 | 50 | 1011.2 |
| 20260502182959 | 12 | 359 | 6.4 | 16.1 | 0.00 | 0.03 | 0.03 | 47 | 1011.3 |
| 20260502163000 | 11 | 101 | 8.0 | 19.3 | 0.00 | 0.03 | 0.03 | 52 | 1012.2 |
| 20260502161501 | 11 | 55 | 6.4 | 14.5 | 0.00 | 0.03 | 0.03 | 54 | 1012.3 |
| 20260502151500 | 10 | 249 | 6.4 | 20.9 | 0.00 | 0.03 | 0.03 | 65 | 1012.4 |
| 20260502123000 | 7 | 288 | 4.8 | 17.7 | 0.00 | 0.03 | 0.03 | 86 | 1012.3 |
| 20260502121500 | 7 | 241 | 4.8 | 14.5 | 0.00 | 0.03 | 0.03 | 85 | 1012.1 |
| 20260502113000 | 7 | 304 | 4.8 | 11.3 | 0.00 | 0.03 | 0.03 | 72 | 1011.7 |
| 20260502111500 | 7 | 248 | 4.8 | 9.7 | 0.00 | 0.03 | 0.03 | 68 | 1011.8 |
| 20260502110001 | 7 | 239 | 3.2 | 6.4 | 0.00 | 0.03 | 0.03 | 68 | 1011.5 |
| 20260502104501 | 7 | 236 | 3.2 | 6.4 | 0.00 | 0.03 | 0.03 | 67 | 1011.4 |
| 20260502102959 | 6 | 345 | 1.6 | 3.2 | 0.00 | 0.03 | 0.03 | 70 | 1011.4 |
| 20260502091500 | 7 | 316 | 1.6 | 3.2 | 0.00 | 0.03 | 0.03 | 81 | 1010.8 |
| 20260502065959 | 8 | 303 | 4.8 | 11.3 | 0.00 | 0.00 | 0.00 | 84 | 1011.0 |
| 20260502064459 | 9 | 255 | 6.4 | 14.5 | 0.00 | 0.00 | 0.00 | 83 | 1011.3 |
| 20260502062958 | 10 | 285 | 4.8 | 14.5 | 0.00 | 0.00 | 0.00 | 80 | 1011.4 |
| 20260502061500 | 10 | 271 | 3.2 | 16.1 | 0.00 | 0.00 | 0.00 | 79 | 1011.5 |
| 20260502060001 | 10 | 327 | 3.2 | 6.4 | 0.00 | 0.00 | 0.00 | 77 | 1011.6 |
| 20260502054500 | 10 | 268 | 3.2 | 6.4 | 0.00 | 0.00 | 0.00 | 77 | 1011.5 |
| 20260502053001 | 10 | 330 | 1.6 | 4.8 | 0.00 | 0.00 | 0.00 | 78 | 1011.6 |
| 20260502051456 | 10 | 330 | 1.6 | 3.2 | 0.00 | 0.00 | 0.00 | 77 | 1011.5 |
| 20260502045959 | 10 | 330 | 0.0 | 3.2 | 0.00 | 0.00 | 0.00 | 78 | 1011.5 |
| 20260502044459 | 10 | 330 | 0.0 | 3.2 | 0.00 | 0.00 | 0.00 | 77 | 1011.5 |
| 20260502042959 | 10 | 330 | 0.0 | 0.0 | 0.00 | 0.00 | 0.00 | 76 | 1011.3 |
| 20260502041500 | 10 | 330 | 0.0 | 3.2 | 0.00 | 0.00 | 0.00 | 77 | 1011.1 |
| 20260502040004 | 10 | 330 | 0.0 | 1.6 | 0.00 | 0.00 | 0.00 | 76 | 1011.3 |
| 20260502034459 | 10 | 330 | 1.6 | 3.2 | 0.00 | 0.00 | 0.00 | 74 | 1011.3 |
| 20260502033000 | 11 | 330 | 0.0 | 3.2 | 0.00 | 0.00 | 0.00 | 73 | 1011.1 |
| 20260502031459 | 11 | 330 | 0.0 | 1.6 | 0.00 | 0.00 | 0.00 | 72 | 1011.3 |
| 20260502030000 | 11 | 330 | 0.0 | 3.2 | 0.00 | 0.00 | 0.00 | 73 | 1011.3 |
| 20260502024459 | 11 | 330 | 1.6 | 3.2 | 0.00 | 0.00 | 0.00 | 72 | 1011.3 |
| 20260502022958 | 11 | 327 | 1.6 | 4.8 | 0.00 | 0.00 | 0.00 | 72 | 1011.5 |
| 20260502021459 | 11 | 328 | 0.0 | 3.2 | 0.00 | 0.00 | 0.00 | 68 | 1011.4 |
| 20260502020002 | 11 | 328 | 3.2 | 6.4 | 0.00 | 0.00 | 0.00 | 66 | 1011.5 |
| 20260502014500 | 12 | 307 | 3.2 | 8.0 | 0.00 | 0.00 | 0.00 | 63 | 1011.4 |
| 20260502012959 | 12 | 323 | 4.8 | 12.9 | 0.00 | 0.00 | 0.00 | 62 | 1011.3 |
| 20260502011500 | 12 | 300 | 1.6 | 4.8 | 0.00 | 0.00 | 0.00 | 61 | 1011.1 |
| 20260502004459 | 12 | 318 | 1.6 | 3.2 | 0.00 | 0.20 | 0.00 | 62 | 1010.8 |
| 20260502002959 | 12 | 318 | 1.6 | 3.2 | 0.00 | 0.20 | 0.00 | 60 | 1010.6 |